Location: Dvur Kralove nad Labem
(50.4330°N, 15.8170°E)
Time: 07:30:08
(UTC+02:00)

ISS - Pass Details

Date: 12 October 2018
Orbit: 403 x 408 km, 51.6° (Epoch: 21 October)

Event Time Altitude Azimuth Distance (km) Brightness Sun altitude
Rises 19:11:19 0° 281° (W) 2,338 2.0 -10.3°
Reaches altitude 10° 19:14:06 10° 256° (WSW) 1,472 0.4 -10.7°
Maximum altitude 19:15:58 14° 221° (SW) 1,232 -0.8 -11.0°
Drops below altitude 10° 19:17:50 10° 187° (S) 1,466 -0.9 -11.3°
Sets 19:20:36 0° 161° (SSE) 2,321 -0.2 -11.8°
